AST,Max TemperatureF,Mean TemperatureF,Min TemperatureF,Max Dew PointF,MeanDew PointF,Min DewpointF,Max Humidity, Mean Humidity, Min Humidity, Max Sea Level PressureIn, Mean Sea Level PressureIn, Min Sea Level PressureIn, Max VisibilityMiles, Mean VisibilityMiles, Min VisibilityMiles, Max Wind SpeedMPH, Mean Wind SpeedMPH, Max Gust SpeedMPH,PrecipitationIn, CloudCover, Events, WindDirDegrees
2013-10-1,96,86,76,74,68,61,81,56,31,29.77,29.72,29.67,6,6,6,10,4,,0.00,0,,6
2013-10-2,102,90,77,76,66,57,88,52,23,29.82,29.78,29.73,6,6,6,14,8,,0.00,0,,5
2013-10-3,103,90,77,76,70,53,94,60,19,29.85,29.79,29.75,6,6,5,9,6,,0.00,0,,351
2013-10-4,106,92,77,79,70,31,100,76,8,29.81,29.76,29.69,6,3,0,14,6,,0.00,0,Fog,319
2013-10-5,106,91,76,76,57,24,90,47,6,29.78,29.73,29.69,6,6,6,18,8,22,0.00,0,,334
2013-10-6,104,90,75,71,53,30,75,41,7,29.78,29.72,29.68,6,6,6,14,9,20,0.00,0,,300
2013-10-7,102,88,73,77,62,44,86,49,14,29.82,29.77,29.72,6,6,6,20,10,24,0.04,0,,306
2013-10-8,93,86,77,77,67,64,87,56,39,29.90,29.85,29.81,6,6,4,31,20,37,0.00,0,,336
2013-10-9,90,82,72,64,58,48,67,48,33,29.94,29.90,29.86,6,6,6,24,15,30,0.00,0,,328
2013-10-10,89,79,69,62,58,52,74,51,34,29.96,29.92,29.88,6,6,6,21,12,26,0.00,0,,320
2013-10-11,90,80,69,64,59,51,73,53,26,29.95,29.90,29.86,6,6,6,23,14,25,0.00,0,,327
2013-10-12,90,79,67,61,49,36,74,41,17,29.88,29.82,29.78,6,6,6,18,12,21,0.00,0,,311
2013-10-13,93,78,64,61,42,25,87,37,9,29.86,29.81,29.76,6,6,6,14,8,17,0.00,0,,309
2013-10-14,93,78,62,60,44,31,60,33,12,29.93,29.87,29.83,6,6,6,8,4,,0.00,0,,290
2013-10-15,97,81,65,67,55,35,74,47,11,29.94,29.87,29.83,6,6,6,13,3,,0.00,0,,148
2013-10-16,97,82,68,70,55,29,82,50,10,29.93,29.87,29.81,6,6,6,14,6,,0.00,0,,335
2013-10-17,96,80,64,70,58,25,100,73,8,29.95,29.91,29.86,6,3,0,14,7,20,0.00,0,Fog,312
2013-10-18,97,81,65,68,59,41,82,52,14,29.96,29.92,29.89,6,6,6,15,7,20,0.00,0,,17
2013-10-19,98,83,68,73,66,38,100,82,13,29.98,29.93,29.89,6,3,0,13,5,,0.00,0,Fog,323
2013-10-20,99,84,69,67,52,32,71,40,9,29.99,29.93,29.88,6,6,6,15,6,20,0.00,0,,332
2013-10-21,93,83,73,72,63,55,86,53,28,29.93,29.88,29.83,6,6,4,30,17,34,0.00,0,,329
2013-10-22,87,77,66,63,57,51,64,47,33,29.94,29.90,29.86,6,6,4,28,19,34,0.00,0,,329
2013-10-23,87,76,64,54,51,48,67,45,26,30.00,29.94,29.90,6,6,6,16,10,24,0.00,0,,306
2013-10-24,87,74,62,65,57,53,76,53,31,30.01,29.96,29.91,6,6,6,10,6,,0.00,0,,336
2013-10-25,88,76,65,66,61,56,72,58,36,29.99,29.93,29.88,6,6,6,9,4,,0.00,0,,347
2013-10-26,88,78,67,68,61,50,81,59,27,29.96,29.90,29.85,6,6,6,8,2,,0.00,0,,125
2013-10-27,92,79,66,74,68,53,100,85,26,29.97,29.91,29.87,6,4,0,15,4,,0.00,1,Fog,119
2013-10-28,95,82,69,75,69,43,100,85,16,30.41,29.92,29.84,6,3,0,13,2,,0.00,2,Fog,168
2013-10-29,93,81,69,74,68,51,100,83,24,29.95,29.90,29.86,6,4,0,16,5,25,0.00,0,Fog,207
2013-10-30,92,81,70,64,57,46,76,49,20,30.01,29.97,29.92,6,6,6,13,9,,0.00,0,,347
2013-10-31,92,80,67,69,61,47,83,58,21,30.04,29.97,29.93,6,6,6,10,7,,0.00,0,,18